Location: Newark
(59.4564°N, 26.6917°E)
Time: 06:25:04
(UTC+00:00)

SR - Pass Details

Date: 23 November 2019
Orbit: 573 x 882 km, 66.7° (Epoch: 07 December)

Event Time Altitude Azimuth Distance (km) Brightness Sun altitude
Rises 17:22:50 0° 296° (WNW) 3,431 ? -28.0°
Reaches altitude 10° 17:25:24 10° 302° (WNW) 2,519 ? -28.3°
Enters shadow 17:30:44 47° 5° (N) 1,165 ? -29.0°
Maximum altitude 17:31:06 47° 16° (NNE) 1,157 - -29.0°
Drops below altitude 10° 17:36:49 10° 90° (E) 2,539 - -29.7°
Sets 17:39:25 0° 96° (E) 3,461 - -30.1°
